TimeCDT,TemperatureF,Dew PointF,Humidity,Sea Level PressureIn,VisibilityMPH,Wind Direction,Wind SpeedMPH,Gust SpeedMPH,PrecipitationIn,Events,Conditions,WindDirDegrees,DateUTC
12:53 AM,66.9,66.0,97,30.09,7.0,ESE,3.5,-,N/A,,Clear,120,2013-05-26 05:53:00
1:53 AM,66.9,66.0,97,30.09,5.0,Calm,Calm,-,N/A,,Clear,0,2013-05-26 06:53:00
2:53 AM,66.9,66.0,97,30.10,5.0,ESE,3.5,-,N/A,,Clear,110,2013-05-26 07:53:00
3:53 AM,66.9,66.0,97,30.11,5.0,Calm,Calm,-,N/A,,Partly Cloudy,0,2013-05-26 08:53:00
4:53 AM,66.9,64.9,93,30.11,7.0,SE,3.5,-,N/A,,Partly Cloudy,140,2013-05-26 09:53:00
5:53 AM,66.9,66.0,97,30.10,7.0,Calm,Calm,-,N/A,,Clear,0,2013-05-26 10:53:00
6:53 AM,69.1,66.0,90,30.11,9.0,South,3.5,-,N/A,,Clear,190,2013-05-26 11:53:00
7:53 AM,70.0,66.9,90,30.11,7.0,Calm,Calm,-,N/A,,Clear,0,2013-05-26 12:53:00
8:53 AM,73.9,68.0,82,30.13,10.0,South,6.9,-,N/A,,Clear,180,2013-05-26 13:53:00
9:53 AM,77.0,69.1,76,30.13,10.0,SSW,6.9,-,N/A,,Clear,200,2013-05-26 14:53:00
10:53 AM,78.1,69.1,74,30.13,10.0,SSW,6.9,-,N/A,,Partly Cloudy,200,2013-05-26 15:53:00
11:53 AM,82.0,69.1,65,30.12,10.0,South,9.2,-,N/A,,Clear,180,2013-05-26 16:53:00
12:53 PM,82.9,66.9,58,30.12,10.0,South,10.4,-,N/A,,Partly Cloudy,180,2013-05-26 17:53:00
1:53 PM,82.9,66.0,56,30.11,10.0,South,4.6,-,N/A,,Scattered Clouds,190,2013-05-26 18:53:00
2:53 PM,81.0,66.0,60,30.09,10.0,SSW,9.2,-,N/A,,Mostly Cloudy,200,2013-05-26 19:53:00
3:07 PM,71.6,66.2,83,30.12,1.8,West,18.4,28.8,0.11,Rain,Heavy Rain,260,2013-05-26 20:07:00
3:10 PM,71.6,66.2,83,30.12,1.2,West,15.0,27.6,0.14,Rain,Heavy Rain,260,2013-05-26 20:10:00
3:18 PM,71.6,66.2,83,30.12,2.0,West,8.1,21.9,0.18,Rain,Rain,280,2013-05-26 20:18:00
3:27 PM,71.6,66.2,83,30.11,7.0,West,3.5,-,0.18,Rain,Light Rain,280,2013-05-26 20:27:00
3:53 PM,73.0,68.0,84,30.08,10.0,Calm,Calm,-,0.18,,Mostly Cloudy,0,2013-05-26 20:53:00
4:53 PM,75.0,68.0,79,30.05,10.0,South,4.6,-,0.00,,Mostly Cloudy,180,2013-05-26 21:53:00
5:53 PM,79.0,68.0,69,30.04,10.0,South,6.9,-,0.00,,Scattered Clouds,190,2013-05-26 22:53:00
6:53 PM,77.0,69.1,76,30.03,10.0,SE,6.9,-,N/A,,Overcast,130,2013-05-26 23:53:00
7:53 PM,75.9,69.1,79,30.03,10.0,ESE,3.5,-,N/A,,Overcast,110,2013-05-27 00:53:00
8:53 PM,73.9,69.1,85,30.02,10.0,ESE,5.8,-,N/A,,Clear,120,2013-05-27 01:53:00
9:53 PM,73.0,69.1,87,30.03,9.0,SE,4.6,-,N/A,,Clear,130,2013-05-27 02:53:00
10:53 PM,72.0,69.1,91,30.04,10.0,SE,6.9,-,N/A,,Partly Cloudy,140,2013-05-27 03:53:00
11:53 PM,73.0,66.9,81,30.04,10.0,SSE,8.1,-,N/A,,Clear,160,2013-05-27 04:53:00